Location: ?????????
(38.0736°N, 23.2119°E)
Time: 12:38:46
(UTC+00:00)

CZ-4B R/B - Pass Details

Date: 18 April 2024
Orbit: 807 x 882 km, 99.0° (Epoch: 17 May)

Event Time Altitude Azimuth Distance (km) Brightness Sun altitude
Rises 17:26:07 0° 142° (SE) 3,466 5.9 -4.6°
Reaches altitude 10° 17:28:39 10° 135° (SE) 2,527 5.1 -5.0°
Maximum altitude 17:33:47 38° 69° (ENE) 1,308 3.9 -6.0°
Drops below altitude 10° 17:38:53 10° 3° (N) 2,510 5.9 -6.9°
Sets 17:41:24 0° 356° (N) 3,440 6.7 -7.4°
